Location: Stillwell
(40.4602°N, 82.0928°W)
Time: 07:08:09
(UTC-04:00)

Daily predictions for brighter satellites

Satellite Brightness Start Highest point End
(mag) Time Altitude Azimuth Time Altitude Azimuth Time Altitude Azimuth
Cosmos 2084 3.9 21:10:53 10° S 21:14:56 38° ESE 21:18:47 10° NE
Atlas Centaur 2 3.0 21:13:25 10° SW 21:16:08 17° S 21:18:37 10° SSE
Cosmos 1697 Rocket 4.1 21:11:24 10° NW 21:16:37 39° WSW 21:21:48 10° S
Cosmos 2233 Rocket 4.2 21:14:06 10° SSE 21:19:59 51° E 21:25:57 10° NNE
Cosmos 1500 3.8 21:16:45 10° NNW 21:20:34 59° W 21:24:21 10° S
Cosmos 1975 3.2 21:17:58 10° N 21:21:54 48° E 21:25:46 10° SSE
SJ-6B 4.2 21:18:48 10° SSW 21:22:15 36° W 21:25:44 10° NNW
Cosmos 2360 Rocket 3.7 21:23:07 10° N 21:27:24 22° NE 21:31:40 10° ESE
Resurs 01 Rocket 1.6 21:23:31 10° SSE 21:27:55 88° ENE 21:32:21 10° NNW
Spot 2 Rocket 3.5 21:23:50 10° SSE 21:28:48 67° ENE 21:33:49 10° N
Cosmos 1980 Rocket 2.9 21:24:56 10° NNW 21:30:26 53° WSW 21:35:55 10° S
deb Kosmos-1763 4.1 21:26:51 10° S 21:30:29 57° ESE 21:34:07 10° NNE
Cosmos 468 Rocket 4.0 21:26:48 10° S 21:32:01 69° ESE 21:37:14 10° NNE
ATLAS CENTAUR R/B 3.1 21:28:45 10° NW 21:32:55 34° WSW 21:37:14 10° S
Cosmos 1937 Rocket 4.0 21:29:04 10° N 21:33:57 42° ENE 21:38:38 11° SE
BREEZE-M DEB (TANK) 1.8 21:31:14 10° WNW 21:34:26 51° SW 21:36:07 13° SE
ERS-2 2.6 21:31:15 10° S 21:34:53 63° WSW 21:38:34 10° NNW
Cosmos 1666 2.8 21:31:22 10° N 21:35:12 58° E 21:39:01 10° SSE
Cosmos 1763 Rocket 3.8 21:33:08 10° S 21:38:13 48° ESE 21:43:18 10° NNE
Meteor 1-12 Rocket 4.4 21:36:19 10° N 21:42:17 73° E 21:48:17 10° SSE
Cosmos 841 Rocket 4.1 21:39:05 10° SSE 21:43:51 37° ESE 21:48:40 10° NE
EPKM 4.5 21:44:08 10° SW 21:46:19 12° SSW 21:47:52 10° S
Cosmos 1743 2.6 21:43:55 10° N 21:47:46 78° E 21:51:34 10° S
SPOT 5 4.5 21:49:27 11° ESE 21:52:05 18° ENE 21:55:08 10° NNE
Iridium 2 3.8 21:49:48 10° S 21:53:32 57° E 21:57:18 10° NNE
Cosmos 858 Rocket 4.5 21:52:05 10° NNW 21:57:18 80° ENE 22:01:47 14° SSE
Terra 4.0 21:56:15 10° ENE 21:57:40 11° ENE 21:59:06 10° NE
USA 234 3.2 21:51:14 10° NE 21:57:49 83° SE 22:04:25 10° SW
Centaur D-1A AC-31 2.9 21:54:47 10° WSW 21:58:48 17° SSW 22:00:42 13° SSE
NOSS 3-2 (A) 4.4 21:53:47 10° SW 21:59:31 51° NW 22:05:55 10° NNE
Timation 2 Rocket 4.2 21:57:16 10° SSW 22:03:12 71° WNW 22:09:17 10° NNE
Cosmos 1833 4.5 21:58:43 10° S 22:04:10 47° ESE 22:09:36 10° NE
Lacrosse 5 rocket 2.9 22:00:32 10° NNW 22:04:18 28° NNE 22:07:25 12° E
Meteor 2-4 Rocket 3.7 21:59:34 10° S 22:04:54 63° E 22:10:25 10° NNE
NOSS 3-2 (C) 4.0 21:59:37 10° SW 22:05:28 64° NW 22:12:00 10° NNE
ERS-1 Rocket 3.4 22:07:46 19° SE 22:11:05 48° ENE 22:15:54 10° N
Cosmos 1464 Rocket 4.2 22:05:11 10° SSE 22:11:16 55° E 22:17:28 10° NNE
Abrixas rocket 3.8 22:09:32 10° W 22:12:32 35° NNW 22:15:33 10° NE
ISS -0.9 22:11:29 10° WNW 22:13:54 19° NNW 22:16:20 10° NNE
USA 245 3.8 22:16:24 26° ESE 22:17:57 42° ENE 22:22:02 10° N
Cosmos 1898 Rocket 4.1 22:12:57 10° NNW 22:18:07 54° WSW 22:22:49 12° S
Cosmos 1356 3.6 22:17:03 26° SSE 22:18:44 52° E 22:22:07 10° NNE
Cosmos 1515 4.1 22:17:00 25° SSE 22:18:48 44° E 22:22:27 10° NNE
SPOT 1/Viking Rocket 4.4 22:16:49 21° ESE 22:19:36 35° ENE 22:24:16 10° N
ARGOS 3.1 22:15:18 16° SSE 22:19:41 90° WNW 22:25:08 10° NNW
Cosmos 2322 4.5 22:15:05 10° N 22:20:28 40° ENE 22:23:44 21° ESE
Cosmos 1814 Rocket 4.2 22:16:39 10° SSW 22:21:52 74° WNW 22:27:12 10° NNE
Cosmos 2322 Rocket 2.5 22:16:30 10° NNW 22:22:03 65° WSW 22:26:19 17° S
Tiangong 2 1.7 22:19:42 10° W 22:22:49 55° N 22:25:09 16° ENE
H-2A R/B 1.9 22:19:42 21° SSE 22:23:05 78° ENE 22:28:08 10° N
Cosmos 1455 Rocket 3.0 22:20:11 10° N 22:24:34 82° E 22:27:13 24° SSE
CENTAUR R/B 2.4 22:19:13 10° SSW 22:25:05 84° ESE 22:31:54 10° NE
Cosmos 1340 Rocket 2.8 22:25:14 15° S 22:28:36 88° WNW 22:32:41 10° N
Cosmos 1891 Rocket 4.5 22:24:10 15° S 22:29:26 68° E 22:35:45 10° NNE
Cosmos 292 Rocket 3.7 22:25:57 10° SSW 22:30:43 85° WNW 22:35:29 10° NNE
Cosmos 1125 Rocket 4.4 22:26:32 10° N 22:31:22 35° ENE 22:33:42 24° ESE
SL-16 R/B 2.8 22:25:59 10° NNW 22:31:28 51° WSW 22:35:43 17° S
Shenzhou-11 Module 1.8 22:32:39 10° WNW 22:35:38 86° SSW 22:36:03 62° ESE
DMSP B5D2-2 4.1 22:35:08 10° NNE 22:40:24 64° ESE 22:43:34 24° S
Aureole 2 Rocket 2.3 22:39:55 10° NNW 22:42:47 54° WSW 22:43:07 49° SW
Helios 1A 3.0 22:41:57 38° SE 22:43:21 62° ENE 22:47:28 10° N
Cosmos 836 Rocket 4.5 22:43:05 25° S 22:45:57 59° ESE 22:51:05 10° NNE
Cosmos 2219 4.0 22:48:53 29° ESE 22:49:39 30° ESE 22:54:36 10° NE
Cosmos 2237 4.3 22:44:42 10° NNW 22:50:26 68° ENE 22:52:57 34° SE
Okean 2 3.5 22:50:55 45° SE 22:51:50 57° E 22:55:56 10° NNE
Cosmos 1544 Rocket 4.3 22:47:35 10° NNW 22:51:52 48° W 22:54:28 22° SSW
Meteor 1-15 Rocket 4.2 22:48:55 10° N 22:54:41 85° E 22:57:22 33° SSE
CZ-4C R/B 3.5 22:51:50 10° NNW 22:58:46 49° NE 23:03:19 25° ESE
Cosmos 1356 Rocket 3.4 23:03:26 54° SE 23:04:07 64° E 23:08:23 10° NNE
SJ 16-02 1.2 22:59:46 10° NNW 23:04:14 89° ENE 23:05:18 52° SSE
Cosmos 1544 4.2 23:02:09 10° NNE 23:05:13 31° ENE 23:05:13 31° ENE
Okean 1-7 Rocket 4.3 23:05:55 36° E 23:06:03 37° E 23:10:13 10° NNE
Cosmos 1536 Rocket 4.3 23:05:18 20° SSW 23:08:06 50° W 23:12:27 10° N
Cosmos 540 Rocket 4.0 23:06:54 11° SSW 23:11:44 59° WNW 23:16:52 10° NNE
Cosmos 2360 Rocket 2.5 23:06:15 10° NNW 23:11:48 59° WSW 23:14:04 34° S
Helios 1B rocket 2.3 23:08:54 10° NNE 23:13:04 88° W 23:13:58 54° SSW
Cosmos 2333 4.3 23:08:33 10° NNW 23:14:12 65° ENE 23:15:58 43° SE
CZ-2C R/B 3.5 23:09:18 10° NNE 23:14:22 34° E 23:14:47 33° ESE
Cosmos 2219 Rocket 2.8 23:10:36 10° N 23:15:56 44° ENE 23:17:36 35° ESE
Landsat 7 3.7 23:14:40 49° S 23:15:57 84° WSW 23:20:44 10° NNW
Cosmos 1092 Rocket 4.0 23:12:11 10° N 23:18:32 69° E 23:20:43 42° SSE
Nadezhda 4 Rocket 4.0 23:14:47 10° N 23:21:07 79° W 23:23:53 36° S
IGS 5A 3.3 23:21:30 73° SSE 23:21:53 86° ENE 23:26:03 10° NNW
SPOT 5 3.5 23:28:41 36° SW 23:29:47 43° W 23:34:08 10° NNW
Cosmos 2058 Rocket 4.3 23:27:38 10° NNE 23:31:33 30° ENE 23:31:33 30° ENE
Terra 1.7 23:33:59 64° S 23:34:42 83° WSW 23:39:29 10° NNW
Cosmos 372 Rocket 4.4 23:32:57 10° NNW 23:37:55 52° WSW 23:39:00 43° SW
Cosmos 2333 Rocket 2.4 23:32:44 10° NNW 23:38:24 59° ENE 23:39:38 48° ESE
CARTOSAT-1 3.7 23:39:20 58° SW 23:39:40 61° W 23:43:57 10° NNW
COSMOS 2428 2.6 23:35:45 10° NNW 23:41:28 83° WSW 23:42:36 59° S
SL-16 R/B 4.3 23:38:41 10° N 23:42:12 16° NE 23:44:53 12° E
CZ-2C R/B 3.1 23:41:20 60° SSE 23:42:22 85° ENE 23:48:00 10° NNW
Lacrosse 5 rocket 2.2 23:39:37 10° NW 23:43:05 40° WSW 23:43:05 40° WSW
NOSS 0 Rocket 4.3 23:39:01 10° NNW 23:45:09 55° ENE 23:46:47 43° ESE
BREEZE M DEB (TANK) 4.4 23:44:00 10° WNW 23:47:56 20° WSW 23:47:56 20° WSW
Cosmos 2026 Rocket 3.9 23:41:56 10° N 23:48:06 73° E 23:49:21 56° SE
Cosmos 2279 Rocket 4.1 23:50:11 52° SE 23:51:11 58° E 23:57:16 10° NNE
ISS -0.5 23:50:07 10° NNW 23:51:24 12° N 23:52:40 10° NNE
Cosmos 1655 Rocket 4.3 23:45:39 10° N 23:51:51 51° ENE 23:53:03 46° ESE
Cosmos 1980 4.2 23:47:00 10° NNW 23:52:26 46° ENE 23:53:30 41° E
Cosmos 1025 Rocket 4.3 23:51:30 30° WSW 23:52:42 35° WNW 23:56:43 10° N
Cosmos 1953 4.4 23:50:03 10° NNE 23:52:04 17° ENE 23:52:04 17° ENE
